Temperature
23 23 22 22 20 20 22 23 24 24 24 24 24 23 22 21 21 21 20 20 20 20 19 19 19 19 19 19 19 19 19 19 19 19 19 19 19 18 18 18 18 18 18 18 18 18 18 18 18
23 23 23 22 20 21 22 23 24 24 24 24 24 23 22 20 20 20 20 20 20 20 20 19 19 19 19 19 19 19 19 19 19 19 19 19 18 18 18 18 18 18 18 18 18 18 18 18 18
23 23 23 20 21 21 23 24 24 25 25 25 24 23 22 20 21 21 21 21 20 20 20 20 19 20 20 20 19 19 19 19 19 19 19 18 18 18 18 18 18 18 18 18 17 17 18 17 17
24 23 23 20 23 23 23 24 24 24 25 25 23 22 21 21 22 22 21 21 20 20 20 20 20 20 20 20 20 19 19 19 19 19 19 19 18 18 18 18 18 18 18 18 17 17 17 17 17
24 23 21 21 23 23 24 25 25 24 24 24 23 21 20 21 22 22 21 21 21 20 20 20 20 20 20 20 19 19 19 19 19 19 19 18 18 18 18 18 18 18 18 18 17 17 17 17 17
24 21 21 22 23 24 25 25 25 24 24 24 23 21 20 21 22 22 21 21 21 20 20 20 20 20 20 19 19 19 19 19 19 19 18 18 18 18 18 18 18 18 18 18 17 17 17 17 17
23 20 22 22 23 24 26 26 25 24 24 24 23 20 20 20 21 22 21 21 20 20 20 20 20 20 20 19 19 19 19 19 18 18 18 18 18 18 18 18 18 18 18 17 17 17 17 17 17
25 20 22 22 23 25 26 26 26 25 24 24 24 21 20 20 21 21 21 20 20 20 20 20 20 19 19 19 19 19 19 18 18 18 18 18 18 18 18 18 18 17 17 17 17 17 17 17 17
25 20 22 23 24 25 26 26 26 26 25 24 24 24 23 22 21 20 20 20 20 20 20 20 20 19 19 19 19 19 18 18 18 18 18 18 18 18 18 18 18 17 17 17 17 17 17 17 17
24 21 24 24 25 25 26 26 26 25 24 23 23 23 23 22 21 21 21 20 20 20 20 20 20 19 19 19 19 18 18 18 18 18 18 18 18 18 18 18 18 17 17 17 17 17 17 17 17
24 23 24 25 26 26 26 26 26 25 23 24 23 23 22 21 21 21 21 21 21 21 20 20 20 19 19 19 19 18 18 18 18 18 18 18 18 18 18 18 18 17 17 17 17 17 17 17 17
24 24 25 26 27 26 26 26 26 25 26 27 26 25 23 22 21 22 22 21 21 21 20 20 20 20 19 19 19 19 18 18 18 18 18 18 18 18 18 18 18 18 17 17 17 17 17 17 17
25 25 26 27 27 27 26 26 26 26 27 27 25 24 23 23 22 22 22 22 21 21 21 20 20 20 19 19 19 19 18 18 18 18 18 18 18 18 18 18 18 18 17 17 17 17 17 17 17
25 25 26 27 27 27 26 26 26 26 26 25 24 23 23 23 22 21 21 21 21 21 21 20 20 20 19 19 19 19 19 18 18 18 18 18 18 18 18 18 18 18 17 17 17 17 17 17 17
26 25 25 26 26 26 26 26 25 25 25 24 23 22 22 22 22 22 22 22 21 21 21 20 20 20 19 19 19 19 18 18 18 18 18 18 18 18 18 18 18 18 17 17 17 17 17 17 17
24 24 24 25 25 26 26 25 24 25 24 22 22 21 21 21 22 22 22 22 21 21 20 20 20 19 19 19 19 19 18 18 18 18 18 18 18 18 18 18 18 18 17 17 17 17 17 17 17
22 23 24 24 25 25 25 25 24 24 23 22 22 21 21 21 21 21 21 22 21 21 20 20 20 19 19 19 18 18 18 18 18 18 18 18 18 18 18 18 17 17 17 17 17 17 17 17 17
23 24 24 23 24 24 24 23 23 23 23 22 22 22 21 21 22 21 21 21 21 21 20 20 20 19 19 18 18 18 18 18 18 18 18 18 18 18 18 17 17 17 17 17 17 17 17 17 17
24 23 22 23 24 24 24 23 23 23 23 22 22 21 21 22 22 22 21 21 21 20 20 20 19 19 19 18 18 18 18 18 18 18 18 18 18 18 18 17 17 17 17 17 17 17 17 17 17
23 23 22 23 24 24 23 23 22 22 22 22 22 22 22 22 22 21 21 21 21 20 20 20 19 19 19 18 18 18 18 18 18 18 18 18 18 18 17 17 17 17 17 17 17 17 17 17 17
23 23 23 24 24 23 24 23 22 22 22 22 22 22 22 22 22 22 21 21 21 21 20 20 20 19 19 19 18 18 17 18 17 18 18 18 18 18 18 17 17 17 17 17 17 17 17 17 17
22 23 23 24 23 22 23 22 22 21 21 21 21 22 22 22 22 22 21 21 21 21 20 20 20 19 19 18 18 18 18 18 18 18 18 18 18 18 18 17 17 17 17 17 17 17 17 17 17
23 24 24 23 23 22 21 21 21 20 21 21 20 21 21 22 22 22 22 22 21 21 20 20 19 19 19 18 18 18 18 18 18 18 18 18 18 17 17 17 17 17 17 17 17 17 17 17 17
24 23 21 19 19 21 21 22 21 20 21 20 20 21 21 22 22 22 21 21 21 21 20 20 19 19 18 18 18 18 18 18 18 18 18 17 17 17 17 17 17 17 17 17 17 17 17 17 17
23 21 20 21 19 20 20 21 20 21 20 20 20 21 21 22 22 22 21 21 20 20 20 20 19 19 18 18 18 18 18 18 18 18 17 17 17 17 17 17 17 17 17 17 17 17 17 17 17
22 21 20 21 21 20 20 20 20 21 20 21 21 21 21 22 22 22 21 21 21 20 20 19 19 19 18 18 18 17 17 18 17 17 17 17 17 17 17 17 17 17 17 17 17 17 17 17 17
21 20 20 18 19 20 20 20 20 21 20 20 20 20 21 22 22 22 21 21 21 20 20 20 19 19 18 18 18 17 17 17 17 17 17 17 17 17 17 17 17 17 17 17 17 17 16 16 16
22 18 17 18 19 20 21 21 20 21 20 19 19 20 21 22 22 22 21 21 21 20 20 19 19 19 18 18 18 17 17 17 17 17 17 17 17 17 17 17 17 17 16 16 16 16 16 16 16
21 20 18 16 18 19 20 20 20 20 20 19 19 20 21 22 22 21 21 21 20 20 20 19 19 18 18 18 17 17 17 17 17 17 17 17 17 17 17 17 16 16 16 16 16 16 16 16 16
23 20 18 20 19 17 19 20 21 19 19 19 20 21 21 21 22 21 21 20 20 20 19 19 19 18 18 18 18 17 17 17 17 17 17 17 17 17 17 16 16 16 16 16 16 16 16 16 16
Wind_Speed
3 4 3 2 5 6 4 4 1 2 2 2 5 5 6 4 3 3 4 11 15 13 14 17 17 17 16 16 16 16 16 16 16 15 15 14 14 14 13 12 12 12 12 12 13 13 13 13 14
3 4 1 3 6 4 4 4 2 2 3 5 6 5 5 4 4 8 7 10 15 14 15 16 17 17 16 16 16 15 15 15 15 14 14 14 13 13 12 12 12 12 12 12 12 13 13 13 13
3 2 3 5 4 3 1 2 1 2 3 2 4 5 4 4 7 7 8 15 14 12 15 17 18 17 16 16 15 15 14 14 14 14 13 13 13 12 12 12 12 12 12 12 13 13 13 13 13
2 3 4 6 3 3 4 3 2 2 2 4 5 5 4 4 6 8 15 16 14 11 14 17 18 17 16 15 15 14 14 14 13 13 13 12 12 12 11 11 12 12 12 12 12 12 12 12 12
3 4 6 5 3 3 3 3 3 2 1 3 4 5 3 4 10 16 17 16 14 10 12 16 18 17 16 15 14 13 13 13 13 12 12 12 11 11 11 11 12 12 12 12 12 12 12 12 12
4 5 6 3 5 3 2 3 3 2 2 3 4 5 3 5 12 15 15 13 12 11 11 15 18 17 16 15 14 13 13 13 12 12 11 11 11 11 11 11 11 11 12 12 12 12 12 11 11
4 4 3 0 3 3 2 2 3 3 3 3 5 6 3 6 9 13 12 11 10 9 9 10 14 15 16 14 13 13 12 12 12 11 11 11 11 11 11 11 11 11 11 11 11 11 11 10 10
5 5 3 1 1 3 1 2 2 4 2 4 6 8 6 8 12 12 12 10 9 8 7 7 10 11 12 13 13 13 12 12 11 11 11 11 11 11 11 10 10 10 10 10 10 10 10 9 10
4 5 1 3 3 3 2 1 1 2 4 3 3 5 8 18 17 15 13 10 9 9 7 6 7 9 10 10 12 12 12 12 11 10 11 10 9 9 8 9 9 9 9 10 10 9 9 9 9
5 2 5 5 4 3 3 3 4 3 3 2 4 7 17 19 18 17 16 16 14 12 9 6 6 7 9 9 9 9 9 9 8 8 9 9 8 7 7 8 8 8 8 8 9 8 8 8 8
3 4 5 5 6 4 3 3 4 7 5 8 9 16 21 19 17 16 15 14 14 12 11 8 7 7 7 5 7 7 7 7 7 8 9 8 6 5 5 4 5 6 6 6 6 6 6 6 6
2 5 4 6 4 3 4 4 4 7 8 8 14 21 23 21 19 18 17 14 11 11 11 10 8 7 7 6 6 6 6 6 6 7 8 7 4 3 3 3 4 4 5 5 4 4 5 5 5
2 5 5 7 7 4 3 4 4 5 3 10 16 19 21 20 17 14 12 12 11 12 12 11 9 8 7 5 5 6 6 6 7 7 8 8 5 3 3 3 3 3 4 3 3 3 3 3 4
4 6 8 6 3 1 3 2 2 3 7 13 17 17 17 17 16 13 12 12 13 13 13 11 10 9 7 5 4 5 7 7 7 8 9 9 8 5 4 3 3 3 3 3 3 2 3 2 2
3 6 8 3 1 1 2 3 3 4 10 13 14 14 13 13 13 14 15 14 14 13 11 11 11 9 9 7 6 6 7 8 7 9 10 10 9 8 6 4 3 4 3 3 3 2 3 2 2
4 5 5 6 3 1 4 5 4 7 11 11 11 11 11 10 12 12 12 11 11 10 11 11 11 10 9 7 6 5 7 8 8 9 9 10 10 10 8 4 4 5 4 3 2 2 2 1 1
6 4 4 8 4 2 1 5 3 6 9 9 10 10 10 8 8 9 10 11 11 11 12 11 10 11 10 8 6 6 6 7 7 8 9 10 11 11 9 6 5 5 4 3 2 2 2 2 2
1 2 4 7 6 3 2 4 2 4 7 8 8 8 8 9 9 8 9 10 10 10 11 11 10 10 9 7 5 4 4 4 6 7 9 10 10 11 9 6 6 6 3 3 2 2 1 1 2
2 2 6 7 5 2 3 4 3 2 5 6 6 6 7 7 5 6 7 8 9 9 10 11 11 9 9 6 6 5 5 5 4 5 9 11 11 11 9 6 5 5 5 5 5 3 2 1 1
2 4 6 7 4 1 2 4 3 2 5 6 7 8 8 6 6 7 8 8 9 10 10 10 11 11 10 8 6 4 4 3 4 4 7 10 11 11 10 7 5 5 4 5 5 4 3 2 2
4 5 6 5 5 5 3 6 4 3 1 1 4 6 7 9 9 8 8 8 9 10 11 11 11 11 10 9 5 4 3 2 2 4 4 6 10 11 10 9 7 6 6 6 6 6 5 4 2
5 7 7 4 1 3 3 2 6 4 4 3 4 5 7 7 7 7 8 8 8 8 8 8 9 9 9 9 8 8 7 6 6 5 5 5 8 9 10 9 8 7 6 6 6 6 4 5 3
7 1 2 1 3 1 3 2 7 3 4 6 5 6 6 7 7 7 8 7 6 7 7 7 8 8 8 8 9 8 6 5 3 3 5 5 4 6 8 8 7 6 6 6 6 6 5 4 4
4 6 7 6 5 1 3 2 6 5 6 5 5 6 6 7 7 6 6 5 5 5 6 7 7 7 8 8 8 8 8 6 5 5 5 5 4 4 5 7 6 6 6 6 6 6 7 5 5
5 6 5 5 4 4 4 2 9 7 6 6 6 6 6 7 7 7 7 7 6 6 7 7 8 7 7 8 8 8 8 7 7 6 6 6 4 4 5 5 5 5 6 6 6 6 6 6 6
6 10 8 5 5 5 4 5 8 5 5 3 3 4 5 6 6 6 7 7 7 7 7 7 7 6 7 7 7 6 7 6 5 6 5 6 5 5 5 5 5 6 6 6 5 5 5 5 6
8 5 8 8 4 0 5 7 9 2 2 0 3 4 5 6 6 6 5 6 6 6 6 7 7 6 6 6 6 6 5 5 5 5 5 4 4 4 5 5 5 5 5 5 5 4 5 5 5
7 10 7 7 6 3 5 5 6 6 5 4 5 5 5 5 6 6 5 5 5 5 4 5 5 6 5 5 5 4 4 5 4 4 5 4 4 4 4 4 4 4 4 4 5 4 4 5 5
6 6 6 6 6 7 4 7 7 9 8 8 8 7 7 7 8 7 6 5 5 5 5 5 5 5 5 4 4 4 3 3 3 4 4 3 3 4 4 4 4 4 4 4 4 4 4 5 4
6 9 9 7 5 6 5 8 6 7 8 8 7 6 6 7 6 6 6 5 6 6 6 5 5 5 5 5 4 4 3 3 3 3 2 3 3 3 4 4 4 4 4 4 4 4 4 4 4
Wind_Direction
212 165 149 117 58 47 18 337 26 70 81 106 119 119 120 114 151 150 121 136 133 139 146 144 140 135 130 126 122 120 118 117 118 118 120 121 123 123 122 121 119 119 117 117 116 115 113 113 113
159 157 125 63 71 51 342 326 34 52 129 113 93 91 89 81 82 112 129 141 138 140 142 144 142 138 135 130 126 124 123 122 121 121 122 123 123 124 124 122 122 122 121 121 119 118 116 114 114
175 157 80 67 78 135 259 289 102 61 90 96 92 76 88 121 129 138 148 143 136 138 142 148 145 142 139 135 131 129 127 126 125 124 124 124 124 125 125 124 123 122 121 121 121 120 119 118 117
122 54 53 65 64 230 218 230 165 115 50 54 93 78 71 99 141 142 140 141 137 137 144 151 149 145 143 140 136 134 132 130 129 127 127 126 126 126 126 124 122 121 121 119 120 121 121 121 118
67 76 57 44 336 278 236 212 175 148 103 70 92 94 64 36 114 132 141 143 142 140 146 153 152 149 147 144 142 139 137 134 132 131 131 129 128 127 124 121 121 122 121 118 117 120 120 120 120
56 65 69 21 321 305 237 185 153 123 119 104 104 102 69 114 129 140 143 143 143 143 145 154 154 153 151 150 148 145 141 139 138 137 135 132 128 126 123 122 122 122 120 119 118 118 118 118 119
91 75 92 240 301 307 214 156 154 148 150 152 128 112 116 141 140 138 136 134 135 138 139 147 154 157 156 155 153 150 147 144 142 140 138 135 131 129 126 124 123 123 121 120 120 119 118 118 121
114 92 56 333 260 274 228 130 144 149 172 126 128 145 172 163 139 130 127 130 135 136 138 140 147 153 156 159 159 156 152 150 147 144 143 140 137 134 130 126 126 125 125 124 122 121 120 119 122
91 70 21 241 226 250 186 140 145 141 123 121 134 156 153 140 138 135 136 140 152 156 150 143 143 147 151 159 165 162 158 157 154 152 148 135 125 125 128 132 132 131 129 126 122 120 119 118 121
83 111 238 225 221 229 215 192 176 141 138 134 86 101 130 143 150 154 160 166 170 171 166 155 151 152 155 166 163 159 155 154 148 143 134 128 128 131 135 140 137 134 129 124 118 114 108 108 113
135 198 249 265 243 225 204 199 172 152 195 201 171 149 149 155 161 167 173 176 176 172 171 167 163 161 161 159 153 150 145 145 143 141 138 135 131 131 124 119 120 118 114 105 104 100 99 107 115
204 253 246 274 265 211 195 184 174 190 220 186 161 155 158 166 173 177 178 178 172 172 175 173 172 169 170 163 157 152 149 152 152 152 149 145 138 136 131 120 116 110 111 106 100 100 104 111 120
234 280 272 265 276 225 184 194 198 223 195 128 141 156 167 175 179 181 178 174 172 178 180 179 178 175 172 163 166 164 163 168 167 165 167 166 162 163 155 147 141 138 134 127 116 107 112 120 123
266 275 290 289 272 228 173 231 172 228 137 136 151 168 176 179 179 175 175 179 183 185 184 178 180 177 171 172 171 167 173 176 175 182 185 183 180 177 170 169 171 170 160 145 135 124 119 125 131
308 322 328 336 328 270 107 321 242 167 139 149 164 172 175 181 180 184 185 185 187 187 182 180 181 178 177 179 181 178 181 181 187 195 194 190 188 186 183 183 195 200 185 158 133 119 111 126 130
23 22 340 316 346 2 120 254 263 151 149 161 170 173 179 184 187 188 184 184 182 179 181 182 186 183 184 184 182 180 184 188 194 196 195 195 194 192 186 189 204 202 182 159 146 139 129 135 142
28 10 320 314 342 29 122 257 276 152 158 169 176 179 181 181 187 186 184 183 181 180 181 182 182 181 184 183 181 183 188 192 193 190 192 196 197 195 189 193 201 191 174 166 173 160 160 169 170
306 332 314 300 309 357 283 268 293 169 170 178 182 180 180 188 195 183 182 183 180 181 180 182 182 179 175 170 165 171 187 193 193 190 196 194 197 195 190 193 192 181 171 178 172 160 151 154 163
176 265 287 276 291 312 285 288 275 185 177 184 182 178 186 195 177 165 174 177 173 176 177 182 183 177 169 170 176 182 199 194 194 194 197 196 196 194 189 192 182 180 186 191 178 159 159 162 140
206 288 291 299 340 12 345 337 302 217 209 200 185 183 186 177 164 164 171 174 180 184 183 181 183 179 178 181 178 180 179 186 195 196 196 198 194 193 194 187 185 184 184 185 183 170 160 169 160
243 218 248 275 343 21 43 349 326 306 314 187 185 185 183 184 182 174 174 178 180 187 189 188 186 184 181 172 156 143 126 120 170 200 202 201 195 194 193 190 187 185 187 194 194 183 174 181 184
260 230 218 251 15 317 45 291 290 299 300 234 209 187 190 187 176 171 173 176 183 191 185 180 178 181 178 170 174 175 184 193 200 197 201 199 197 198 193 189 188 187 189 193 198 191 185 170 184
218 234 179 213 152 27 13 154 283 319 279 256 225 198 192 187 177 174 172 177 180 178 174 174 170 175 176 177 181 182 192 197 182 179 192 200 199 200 193 189 190 191 193 197 198 189 189 184 183
172 70 54 46 72 31 296 177 273 251 238 258 229 199 187 176 167 166 162 160 168 172 166 163 167 176 175 178 183 187 190 186 181 191 196 199 199 199 195 192 193 197 197 198 201 198 192 193 189
116 92 33 5 15 257 289 229 250 253 251 245 229 203 177 163 160 159 161 170 177 177 173 171 173 181 178 179 188 194 196 193 197 198 198 197 199 201 204 198 197 201 199 198 194 193 197 195 194
170 142 156 191 218 272 321 248 257 268 276 260 212 178 162 157 162 169 173 176 179 179 175 178 181 181 179 183 192 195 197 197 202 199 198 202 206 204 196 194 199 201 196 198 191 195 203 199 201
140 167 156 131 145 222 287 289 302 291 316 249 170 152 164 164 162 162 163 169 171 175 180 178 176 177 179 187 188 190 191 193 196 193 197 205 207 202 192 192 195 198 194 194 189 194 200 194 201
142 141 109 125 146 216 282 278 257 263 241 225 196 179 169 158 152 149 154 159 161 160 155 146 154 164 162 165 175 182 181 183 183 182 190 196 198 195 185 187 189 193 197 197 194 191 194 191 203
116 111 111 117 146 154 219 265 228 223 214 203 205 189 173 168 163 157 152 147 142 133 134 140 142 141 143 152 157 157 160 167 172 181 194 195 190 183 183 186 184 186 193 190 188 195 186 187 194
163 164 148 151 193 172 173 259 267 228 213 195 191 181 174 165 150 144 142 144 142 142 144 146 142 137 142 144 137 136 137 141 148 158 170 164 167 174 178 176 173 180 180 179 180 187 180 175 183
Height
1496 1495 1495 1497 1501 1512 1514 1507 1500 1499 1498 1499 1500 1502 1504 1507 1512 1517 1514 1516 1520 1524 1527 1530 1532 1534 1536 1538 1539 1540 1541 1542 1543 1544 1545 1547 1547 1548 1550 1550 1552 1553 1553 1554 1555 1556 1557 1558 1559
1497 1496 1498 1499 1510 1525 1519 1505 1502 1499 1499 1500 1501 1503 1505 1507 1508 1510 1512 1517 1521 1525 1528 1531 1534 1536 1537 1539 1540 1541 1543 1544 1545 1546 1547 1548 1549 1550 1551 1552 1553 1554 1555 1556 1557 1558 1559 1560 1561
1498 1498 1500 1503 1515 1522 1515 1504 1502 1500 1501 1501 1503 1504 1506 1508 1509 1511 1514 1518 1522 1526 1529 1532 1535 1537 1539 1540 1542 1543 1544 1545 1547 1548 1549 1550 1551 1552 1553 1554 1555 1556 1557 1558 1559 1560 1561 1562 1563
1499 1500 1502 1509 1515 1511 1506 1502 1501 1501 1501 1502 1503 1507 1509 1511 1511 1513 1515 1519 1523 1527 1530 1533 1536 1538 1540 1542 1543 1545 1546 1547 1548 1549 1550 1551 1553 1554 1555 1555 1556 1557 1558 1559 1560 1562 1563 1564 1565
1500 1501 1509 1518 1514 1507 1502 1501 1501 1501 1502 1503 1504 1508 1511 1512 1513 1515 1517 1521 1524 1528 1531 1534 1537 1539 1541 1543 1544 1546 1547 1548 1550 1551 1552 1553 1554 1555 1556 1557 1558 1559 1560 1561 1562 1564 1565 1566 1567
1501 1502 1518 1523 1515 1505 1501 1501 1502 1502 1503 1505 1506 1509 1512 1513 1515 1517 1519 1523 1526 1529 1532 1535 1538 1540 1542 1544 1546 1547 1549 1550 1551 1552 1554 1555 1556 1557 1558 1559 1560 1561 1562 1563 1564 1566 1567 1568 1569
1503 1508 1518 1518 1515 1507 1502 1501 1502 1502 1504 1505 1506 1509 1512 1514 1516 1518 1521 1524 1528 1531 1534 1536 1539 1541 1543 1545 1547 1549 1550 1551 1553 1554 1555 1556 1557 1558 1560 1561 1562 1563 1564 1565 1567 1568 1569 1570 1571
1503 1509 1517 1518 1514 1509 1502 1501 1502 1503 1504 1505 1506 1507 1510 1513 1516 1519 1522 1526 1529 1532 1535 1537 1540 1542 1544 1546 1548 1550 1551 1553 1554 1555 1557 1558 1559 1560 1561 1563 1564 1565 1566 1567 1569 1570 1571 1572 1574
1504 1514 1520 1515 1511 1506 1501 1502 1503 1503 1504 1505 1506 1507 1509 1512 1516 1519 1523 1526 1529 1532 1535 1538 1540 1542 1544 1547 1549 1551 1552 1554 1555 1557 1558 1559 1560 1562 1563 1564 1566 1567 1568 1570 1571 1572 1573 1574 1575
1505 1517 1512 1505 1502 1501 1500 1501 1501 1503 1504 1505 1505 1507 1509 1512 1515 1518 1521 1524 1527 1531 1534 1537 1540 1543 1545 1547 1549 1551 1553 1555 1556 1558 1559 1561 1562 1563 1565 1566 1567 1569 1570 1571 1573 1574 1575 1576 1577
1505 1509 1504 1500 1499 1499 1499 1499 1500 1501 1503 1501 1501 1504 1507 1511 1514 1517 1520 1523 1526 1530 1534 1537 1540 1543 1545 1547 1549 1551 1553 1555 1557 1559 1560 1562 1563 1565 1566 1567 1569 1570 1572 1573 1574 1575 1577 1578 1579
1505 1503 1502 1499 1496 1497 1497 1498 1499 1499 1497 1497 1499 1501 1505 1509 1512 1515 1519 1523 1527 1530 1533 1537 1540 1543 1545 1547 1550 1552 1554 1556 1558 1559 1561 1563 1564 1566 1567 1569 1570 1572 1573 1574 1576 1577 1578 1579 1580
1504 1502 1499 1497 1494 1494 1495 1496 1497 1496 1496 1497 1499 1503 1505 1507 1511 1515 1519 1523 1526 1529 1532 1536 1539 1542 1545 1547 1549 1552 1554 1556 1558 1560 1562 1564 1565 1567 1568 1570 1571 1573 1574 1576 1577 1578 1579 1580 1581
1503 1500 1498 1495 1493 1493 1494 1495 1496 1495 1496 1497 1499 1502 1505 1508 1511 1515 1518 1521 1525 1528 1532 1535 1538 1541 1544 1547 1549 1552 1554 1557 1559 1561 1563 1564 1566 1568 1569 1571 1572 1574 1575 1577 1578 1579 1580 1581 1582
1502 1501 1498 1495 1494 1493 1495 1498 1495 1495 1496 1498 1500 1502 1505 1508 1511 1514 1517 1521 1524 1527 1531 1534 1537 1540 1543 1546 1549 1552 1554 1557 1559 1561 1563 1565 1566 1568 1570 1571 1573 1575 1576 1577 1578 1579 1580 1581 1582
1503 1507 1510 1499 1495 1494 1499 1505 1494 1495 1496 1498 1500 1503 1506 1508 1511 1514 1517 1520 1524 1527 1530 1533 1536 1539 1542 1545 1548 1551 1554 1556 1558 1560 1562 1564 1566 1568 1570 1572 1573 1575 1576 1577 1578 1579 1580 1581 1582
1514 1520 1515 1506 1497 1496 1500 1502 1495 1495 1497 1498 1501 1503 1505 1508 1511 1514 1517 1520 1523 1525 1528 1532 1535 1538 1541 1544 1547 1550 1552 1555 1557 1560 1562 1564 1566 1568 1569 1571 1573 1574 1576 1577 1578 1579 1580 1581 1582
1521 1519 1517 1513 1501 1499 1501 1501 1496 1496 1497 1498 1501 1503 1505 1507 1510 1514 1516 1519 1522 1524 1526 1530 1533 1536 1540 1543 1545 1548 1551 1553 1556 1558 1560 1563 1565 1567 1569 1570 1572 1574 1575 1576 1577 1579 1580 1581 1582
1513 1516 1519 1511 1500 1501 1502 1501 1497 1496 1497 1499 1501 1503 1505 1507 1510 1513 1515 1518 1520 1522 1525 1528 1531 1534 1537 1540 1543 1545 1548 1551 1554 1556 1559 1561 1563 1565 1567 1569 1571 1572 1574 1575 1576 1578 1579 1580 1581
1512 1516 1516 1508 1500 1501 1504 1503 1498 1497 1497 1497 1499 1501 1503 1506 1508 1511 1513 1516 1518 1520 1523 1526 1528 1531 1535 1538 1541 1543 1547 1549 1552 1554 1556 1559 1561 1564 1566 1567 1569 1571 1572 1574 1575 1576 1577 1579 1580
1511 1515 1513 1511 1505 1503 1505 1510 1503 1499 1498 1498 1499 1500 1502 1504 1506 1508 1512 1514 1516 1518 1521 1523 1526 1529 1532 1536 1539 1542 1545 1547 1550 1552 1554 1556 1559 1561 1563 1565 1567 1569 1570 1571 1573 1574 1576 1577 1578
1514 1504 1506 1507 1514 1520 1514 1528 1510 1503 1500 1497 1497 1498 1500 1502 1504 1507 1510 1512 1515 1517 1520 1522 1525 1528 1531 1534 1536 1539 1541 1544 1546 1549 1552 1554 1556 1558 1561 1563 1565 1566 1567 1569 1571 1572 1573 1575 1576
1504 1499 1502 1506 1513 1522 1520 1526 1519 1506 1502 1497 1495 1495 1497 1500 1502 1506 1508 1511 1513 1516 1518 1521 1523 1526 1529 1531 1534 1537 1539 1542 1545 1547 1549 1551 1554 1556 1558 1560 1562 1563 1565 1566 1568 1569 1571 1572 1573
1496 1502 1509 1517 1524 1534 1525 1527 1523 1509 1501 1495 1493 1494 1496 1499 1502 1505 1508 1510 1513 1515 1517 1520 1522 1524 1527 1530 1532 1535 1537 1540 1542 1544 1546 1548 1550 1552 1554 1556 1558 1560 1561 1563 1565 1566 1568 1569 1570
1498 1516 1535 1536 1544 1540 1525 1525 1520 1499 1494 1493 1492 1493 1495 1498 1501 1503 1506 1509 1511 1514 1516 1518 1521 1523 1525 1528 1530 1532 1535 1537 1539 1541 1543 1545 1547 1549 1551 1552 1554 1556 1558 1560 1561 1563 1564 1566 1567
1500 1510 1534 1543 1546 1540 1526 1526 1509 1494 1491 1490 1491 1492 1495 1497 1500 1502 1505 1508 1510 1513 1515 1517 1519 1521 1523 1526 1528 1530 1532 1534 1536 1538 1540 1541 1543 1545 1547 1549 1551 1553 1554 1556 1558 1559 1561 1562 1563
1501 1507 1509 1530 1536 1540 1533 1520 1502 1492 1491 1490 1490 1492 1494 1497 1499 1502 1505 1507 1510 1512 1514 1515 1517 1519 1521 1524 1526 1528 1530 1532 1534 1535 1537 1538 1540 1542 1544 1546 1547 1549 1551 1553 1554 1556 1557 1558 1560
1489 1500 1516 1529 1544 1545 1532 1525 1515 1496 1493 1490 1490 1491 1493 1496 1498 1501 1504 1507 1509 1511 1513 1514 1516 1518 1520 1522 1524 1526 1527 1529 1531 1533 1534 1536 1537 1539 1541 1542 1544 1546 1547 1549 1551 1552 1554 1555 1556
1495 1501 1511 1525 1528 1541 1541 1526 1495 1491 1487 1488 1488 1489 1491 1494 1497 1500 1503 1506 1509 1510 1512 1513 1515 1516 1518 1520 1522 1523 1525 1527 1528 1530 1531 1533 1535 1536 1538 1539 1541 1543 1544 1546 1547 1549 1550 1552 1553
1483 1493 1504 1517 1525 1530 1532 1520 1484 1484 1483 1484 1486 1489 1491 1494 1496 1499 1502 1505 1507 1509 1511 1512 1513 1515 1516 1518 1520 1522 1523 1525 1526 1527 1529 1530 1532 1533 1535 1537 1538 1539 1541 1542 1544 1545 1547 1548 1549